Change the Weather History Date:

Saturday, February 23, 2013

  Actual Average Record
Temperature  
Mean Temperature 34 °F -  
Max Temperature 37 °F 50 °F 55 °F (2011)
Min Temperature 30 °F 38 °F 26 °F (2004)
Degree Days  
Heating Degree Days 32    
Moisture  
Dew Point 26 °F    
Average Humidity 69    
Maximum Humidity 86    
Minimum Humidity 48    
Precipitation  
Precipitation 0.00 in 0.09 in - ()
Sea Level Pressure  
Sea Level Pressure 30.27 in    
Wind  
Wind Speed 4 mph ()    
Max Wind Speed 23 mph    
Max Gust Speed -    
Visibility 6.6 miles    
Events      
Averages and records for this station are not official NWS values.
T = Trace of Precipitation, MM = Missing Value Source: Averaged Metar Reports

Daily Weather History Graph

Daily Weather History Graph

Search for Another Location

Airport or City:

Trip Planner

Search our weather history database for the weather conditions in past years. The results will help you decide how hot, cold, wet, or windy it might be!

Date:

Astronomy

Feb. 23, 2013 Rise Set
Actual Time 7:35 AM GMT 6:03 PM GMT
Civil Twilight 7:00 AM GMT 6:38 PM GMT
Nautical Twilight 6:20 AM GMT 7:18 PM GMT
Astronomical Twilight 5:41 AM GMT 7:57 PM GMT
Moon 3:50 PM GMT (2/23) 6:01 AM GMT (2/23)
Length of Visible Light 11h 37m
Length of Day
10h 28m
Waxing Gibbous, 94% of the Moon is Illuminated
Feb 23
Waxing Gibbous
Feb 25
Full
Mar 4
Last Quarter
Mar 11
New
Mar 19
First Quarter

Hourly Weather History & Observations

Time (GMT) Temp. Windchill Dew Point Humidity Pressure Visibility Wind Dir Wind Speed Gust Speed Precip Events Conditions
12:00 AM 35 °F - 22 °F 48% 30.27 in 12 mi ENE 4.5 mph - -   Overcast
12:00 AM 35.6 °F 31.7 °F 23.0 °F 60% 30.27 in 6.2 mi ENE 4.6 mph - N/A   Overcast
12:30 AM 33.8 °F 29.6 °F 24.8 °F 70% 30.24 in 6.2 mi NNE 4.6 mph - N/A   Overcast
1:00 AM 33.8 °F 30.8 °F 24.8 °F 70% 30.27 in 6.2 mi NNE 3.5 mph - N/A   Overcast
1:30 AM 33.8 °F 30.8 °F 24.8 °F 70% 30.24 in 6.2 mi NE 3.5 mph - N/A   Overcast
2:00 AM 33.8 °F 30.8 °F 23.0 °F 65% 30.24 in 6.2 mi NNE 3.5 mph - N/A   Overcast
2:30 AM 33.8 °F - 24.8 °F 70% 30.24 in 6.2 mi NW 2.3 mph - N/A   Overcast
3:00 AM 33.8 °F 30.8 °F 24.8 °F 70% 30.24 in 6.2 mi NW 3.5 mph - N/A   Overcast
3:30 AM 33.8 °F 29.6 °F 26.6 °F 75% 30.24 in 6.2 mi NNE 4.6 mph - N/A   Overcast
4:00 AM 33.8 °F 29.6 °F 26.6 °F 75% 30.24 in 6.2 mi NNE 4.6 mph - N/A   Overcast
4:30 AM 33.8 °F 29.6 °F 24.8 °F 70% 30.24 in 6.2 mi NNE 4.6 mph - N/A   Overcast
5:00 AM 33.8 °F 30.8 °F 24.8 °F 70% 30.27 in 6.2 mi NNE 3.5 mph - N/A   Overcast
5:30 AM 33.8 °F 30.8 °F 24.8 °F 70% 30.27 in 6.2 mi NNE 3.5 mph - N/A   Overcast
6:00 AM 33 °F - 26 °F 65% 30.28 in 12 mi North 2.2 mph - -   Overcast
6:00 AM 33.8 °F - 24.8 °F 70% 30.27 in 6.2 mi North 2.3 mph - N/A   Overcast
6:30 AM 32.0 °F - 26.6 °F 80% 30.27 in 6.2 mi North 2.3 mph - N/A   Overcast
7:00 AM 32.0 °F - 26.6 °F 80% 30.27 in 6.2 mi North 2.3 mph - N/A   Overcast
7:30 AM 32.0 °F - 26.6 °F 80% 30.27 in 6.2 mi Calm Calm - N/A   Overcast
8:00 AM 33.8 °F - 26.6 °F 75% 30.27 in 6.2 mi NW 1.2 mph - N/A   Overcast
8:30 AM 33.8 °F - 26.6 °F 75% 30.27 in 6.2 mi Calm Calm - N/A   Mostly Cloudy
9:00 AM 33.8 °F - 26.6 °F 75% 30.27 in 6.2 mi ENE 2.3 mph - N/A   Mostly Cloudy
9:30 AM 35.6 °F - 24.8 °F 65% 30.27 in 6.2 mi Variable 1.2 mph - N/A   Mostly Cloudy
10:00 AM 35.6 °F - 26.6 °F 70% 30.27 in 6.2 mi South 2.3 mph - N/A   Mostly Cloudy
10:30 AM 35.6 °F - 26.6 °F 70% 30.27 in 6.2 mi ESE 1.2 mph - N/A   Overcast
11:00 AM 35.6 °F - 26.6 °F 70% 30.27 in 6.2 mi East 1.2 mph - N/A   Overcast
11:30 AM 37.4 °F - 26.6 °F 65% 30.27 in 6.2 mi ESE 2.3 mph - N/A   Overcast
12:00 PM 37 °F - 27 °F 57% 30.29 in 12 mi NNE 4.5 mph - -   Overcast
12:00 PM 37.4 °F 34.9 °F 26.6 °F 65% 30.27 in 6.2 mi NNE 3.5 mph - N/A   Overcast
12:30 PM 37.4 °F 33.8 °F 26.6 °F 65% 30.27 in 6.2 mi NNE 4.6 mph - N/A   Overcast
1:00 PM 37.4 °F 33.8 °F 24.8 °F 60% 30.27 in 6.2 mi NE 4.6 mph - N/A   Overcast
1:30 PM 37.4 °F 33.8 °F 26.6 °F 65% 30.27 in 6.2 mi NE 4.6 mph - N/A   Mostly Cloudy
2:00 PM 37.4 °F 33.8 °F 24.8 °F 60% 30.27 in 6.2 mi NNE 4.6 mph - N/A   Mostly Cloudy
2:30 PM 37.4 °F 33.8 °F 26.6 °F 65% 30.27 in 6.2 mi NE 4.6 mph - N/A   Mostly Cloudy
3:00 PM 37.4 °F 33.8 °F 26.6 °F 65% 30.24 in 6.2 mi NE 4.6 mph - N/A   Mostly Cloudy
3:30 PM 37.4 °F 33.8 °F 26.6 °F 65% 30.24 in 6.2 mi North 4.6 mph - N/A   Overcast
4:00 PM 37.4 °F 33.8 °F 26.6 °F 65% 30.24 in 6.2 mi NNE 4.6 mph - N/A   Mostly Cloudy
4:30 PM 37.4 °F 26.4 °F 24.8 °F 60% 30.24 in 6.2 mi NNE 23.0 mph - N/A   Mostly Cloudy
5:00 PM 37.4 °F - 24.8 °F 60% 30.27 in 6.2 mi NW 2.3 mph - N/A   Overcast
5:30 PM 37.4 °F - 26.6 °F 65% 30.27 in 6.2 mi NNW 2.3 mph - N/A   Mostly Cloudy
6:00 PM 36 °F - 27 °F 61% 30.29 in 12 mi North 4.5 mph - -   Overcast
6:00 PM 37.4 °F 34.9 °F 26.6 °F 65% 30.27 in 6.2 mi North 3.5 mph - N/A   Mostly Cloudy
6:30 PM 35.6 °F 31.7 °F 26.6 °F 70% 30.27 in 6.2 mi NE 4.6 mph - N/A   Overcast
7:00 PM 37.4 °F 33.8 °F 24.8 °F 60% 30.27 in 6.2 mi ENE 4.6 mph - N/A   Mostly Cloudy
7:30 PM 35.6 °F 30.7 °F 26.6 °F 70% 30.27 in 6.2 mi NE 5.8 mph - N/A   Mostly Cloudy
8:00 PM 35.6 °F 30.7 °F 26.6 °F 70% 30.30 in 6.2 mi ENE 5.8 mph - N/A   Overcast
8:30 PM 35.6 °F 30.7 °F 26.6 °F 70% 30.30 in 6.2 mi ENE 5.8 mph - N/A   Mostly Cloudy
9:00 PM 33.8 °F 28.6 °F 26.6 °F 75% 30.30 in 6.2 mi ENE 5.8 mph - N/A   Mostly Cloudy
9:30 PM 33.8 °F 29.6 °F 26.6 °F 75% 30.30 in 6.2 mi ENE 4.6 mph - N/A   Scattered Clouds
10:00 PM 33.8 °F 28.6 °F 24.8 °F 70% 30.30 in 6.2 mi ENE 5.8 mph - N/A   Scattered Clouds
10:30 PM 30.2 °F 26.7 °F 24.8 °F 80% 30.33 in 6.2 mi NNE 3.5 mph - N/A   Mostly Cloudy
11:00 PM 30.2 °F 26.7 °F 26.6 °F 86% 30.33 in 6.2 mi NNE 3.5 mph - N/A   Mostly Cloudy
11:30 PM 30.2 °F 26.7 °F 26.6 °F 86% 30.33 in 6.2 mi North 3.5 mph - N/A   Mostly Cloudy